Other Public Products
Issued by NWS Charleston, SC

Current Version | Previous Version | Text Only | Print | Product List | Glossary Off
Versions: 1 2 3 4 5 6 7 8 9 10 11 12 13 14 15 16 17 18 19 20 21 22 23 24 25 26 27 28 29 30 31 32 33 34 35 36 37 38 39 40 41 42 43 44 45 46 47 48 49 50

000
FPUS82 KCHS 021427
OPUCHS

TEST...KCHS/KSAV Gateway Observations...TEST
National Weather Service Charleston SC
900 AM EST FRI DEC 02 2016

NOTE: "fair" indicates few or no clouds below 12,000 feet with no
significant weather and/or obstructions to visibility.

SCZ050-WAZ558-NCZ071-TXZ119-213-PAZ071-DCZ001-FLZ074-172-MI076-
NYZ176-178-MAZ016-IL014-TNZ027-NJZ106-GAZ044-MD014-021500-
...Gateway Observations for Charleston International...

CITY           SKY/WX    TMP DP  RH WIND       PRES   REMARKS
Chas Airport   MOSUNNY   49  38  65 N9        30.16R
Seattle        LGT RAIN  44  42  93 S10       30.29F
Charlotte      MOSUNNY   44  35  70 CALM      30.18R
Dallas DFW     CLOUDY    46  35  65 E3        30.14R
Dallas Love    CLOUDY    47  37  68 E3        30.16R
Philladelphia  PTSUNNY   45  28  51 W15       29.99R
Wash National  PTSUNNY   49  28  44 W10       30.07S
Baltimore      PTSUNNY   45  28  51 W16       30.04R
Miami          LGT RAIN  74  72  93 VRB7      30.08S
Detroit        CLOUDY    39  35  86 W12       30.03R WCI  32
Newark         PTSUNNY   44  29  55 W17       29.92R
Laguardia      PTSUNNY   44  29  55 W17G24    29.91S
J F K          PTSUNNY   45  29  53 W18       29.93S
Boston Logan   MOSUNNY   43  32  65 W14       29.79R
Ft. Lauderdale PTSUNNY   75  72  90 N8        30.08R
Chicago O`Hare CLOUDY    37  31  78 W9        30.11R WCI  30
Chicago Midway CLOUDY    38  31  76 W9        30.13R WCI  31
Houston Bush   CLOUDY    54  43  66 E12       30.13R
Houston Hobby  PTSUNNY   59  48  67 E10       30.10R
Nashville      MOSUNNY   35  30  82 CALM      30.26R
Atlanta        MOSUNNY   43  31  62 NW9       30.23R

$$

GAZ044-118-TXZ119-213-NCZ071-DCZ001-MDZ014-506-PAZ021-071-NJZ106-
NYZ176-178-MAZ106-OHZ011-021-055-MIZ076-KYZ091-ILZ014-INZ047-
MNZ060-021500-
...Gateway Observations for Savannah International...

CITY           SKY/WX    TMP DP  RH WIND       PRES   REMARKS
Savannah Arpt  MOSUNNY   47  34  60 NW8       30.19R
Atlanta        MOSUNNY   43  31  62 NW9       30.23R
Charlotte      MOSUNNY   44  35  70 CALM      30.18R
Dallas DFW     CLOUDY    46  35  65 E3        30.14R
Houston Bush   CLOUDY    54  43  66 E12       30.13R
Wash National  PTSUNNY   49  28  44 W10       30.07S
Wash Dulles    MOSUNNY   45  27  49 W8        30.07R
Baltimore      PTSUNNY   45  28  51 W16       30.04R
Philadelphia   PTSUNNY   45  28  51 W15       29.99R
Newark         PTSUNNY   44  29  55 W17       29.92R
Laguardia      PTSUNNY   44  29  55 W17G24    29.91S
J F K          PTSUNNY   45  29  53 W18       29.93S
Boston         MOSUNNY   43  32  65 W14       29.79R
Pittsburg      CLOUDY    37  28  70 SW9       30.04R WCI  30
Akron          CLOUDY    37  28  70 W12       30.05R WCI  29
Cleveland      CLOUDY    39  30  70 SW13      30.06R WCI  31
Cincinnati     CLOUDY    37  29  72 NW13      30.17R WCI  29
Columbus       CLOUDY    35  32  91 W7        30.15R WCI  29
Detroit        CLOUDY    39  35  86 W12       30.03R WCI  32
Chicago O`Hare CLOUDY    37  31  78 W9        30.11R WCI  30
Minneapolis    CLOUDY    31  20  63 W7        30.18R WCI  24
Indianapolis   CLOUDY    36  29  75 W12       30.17R WCI  28

$$




USA.gov is the U.S. government's official web portal to all federal, state and local government web resources and services.